Simultaneous Nadir Overpasses (SNOs) Predictions

Prediction of SNOs between NOAA-19 and TERRA Satellite Orbit:

Table of predicted SNOs for the next 14.0 days since TLE Epoch: 4/17/2021
Index Date (NOAA-19) Time (NOAA-19) Lat,Lon (NOAA-19) SZA (NOAA-19 ) Date (TERRA) Time (TERRA) Lat,Lon (TERRA) SZA (TERRA ) Distance(km) Time Diff (sec)
1 04/18/2021 06:51:02 80.17, 109.95 70.83 04/18/2021 06:52:14 80.18, 109.81 70.85 3.27 72
2 04/18/2021 07:42:05 -80.16, -82.80 109.19 04/18/2021 07:41:42 -80.14, -82.88 109.23 2.94 23
3 04/20/2021 13:15:14 80.17, 13.91 70.07 04/20/2021 13:15:23 80.18, 14.03 70.09 2.67 9
4 04/22/2021 18:48:28 -80.18, 110.48 110.68 04/22/2021 18:49:06 -80.18, 110.58 110.66 1.96 38
5 04/22/2021 19:39:25 80.16, -81.83 69.33 04/22/2021 19:38:32 80.18, -81.77 69.34 3.15 53
6 04/25/2021 00:21:38 80.19,-152.86 68.61 04/25/2021 00:22:48 80.18,-152.87 68.62 1.63 70
7 04/25/2021 01:12:38 -80.16, 14.89 111.39 04/25/2021 01:12:15 -80.18, 14.78 111.39 2.98 23
8 04/27/2021 06:45:49 80.18, 111.38 67.91 04/27/2021 06:45:57 80.17, 111.30 67.90 1.72 8
9 04/29/2021 12:19:01 -80.19,-151.95 112.78 04/29/2021 12:19:39 -80.21,-151.86 112.74 2.59 38



Historial Predications of SNOs between NOAA-19 and TERRA
